SCP
0 0 0 0 0 0 0 0 0 0 0 0 0 0 0 0 0 0 0 0 0 0 0 0 0 0 0 0 0 0 0 0 0 0 0 0 0 0 0 0 0 0 0
0 0 0 0 0 0 0 0 0 0 0 0 0 0 0 0 0 0 0 0 0 0 0 0 0 0 0 0 0 0 0 0 0 0 0 0 0 0 0 0 0 0 0
0 0 0 0 0 0 0 0 0 0 0 0 0 0 0 0 0 0 0 0 0 0 0 0 0 0 0 0 0 0 0 0 0 0 0 0 0 0 0 0 0 0 0
0 0 0 0 0 0 0 0 0 0 0 0 0 0 0 0 0 0 0 0 0 0 0 0 0 0 0 0 0 0 0 0 0 0 0 0 0 0 0 0 0 0 0
0 0 0 0 0 0 0 0 0 0 0 0 0 0 0 0 0 0 0 0 0 0 0 0 0 0 0 0 0 0 0 0 0 0 0 0 0 0 0 0 0 0 0
0 0 0 0 0 0 0 0 0 0 0 0 0 0 0 0 0 0 0 0 0 0 0 0 0 0 0 0 0 0 0 0 0 0 0 0 0 0 0 0 0 0 0
0 0 0 0 0 0 0 0 0 0 0 0 0 0 0 0 0 0 0 0 0 0 0 0 0 0 0 0 0 0 0 0 0 0 0 0 0 0 0 0 0 0 0
0 0 0 0 0 0 0 0 0 0 0 0 0 0 0 0 0 0 0 0 0 0 0 0 0 0 0 0 0 0 0 0 0 0 0 0 0 0 0 0 0 0 0
0 0 0 0 0 0 0 0 0 0 0 0 0 0 0 0 0 0 0 0 0 0 0 0 0 0 0 0 0 0 0 0 0 0 0 0 0 0 0 0 0 0 0
0 0 0 0 0 0 0 0 0 0 0 0 0 0 0 0 0 0 0 0 0 0 0 0 0 0 0 0 0 0 0 0 0 0 0 0 0 0 0 0 0 0 0
0 0 0 0 0 0 0 0 0 0 0 0 0 0 0 0 0 0 0 0 0 0 0 0 0 0 0 0 0 0 0 0 0 0 0 0 0 0 0 0 0 0 0
0 0 0 0 0 0 0 0 0 0 0 0 0 0 0 0 0 0 0 0 0 0 0 0 0 0 0 0 0 0 0 0 0 0 0 0 0 0 0 0 0 0 0
0 0 0 0 0 0 0 0 0 0 0 0 0 0 0 0 0 0 0 0 0 0 0 0 0 0 0 0 0 0 0 0 0 0 0 0 0 0 0 0 0 0 0
0 0 0 0 0 0 0 0 0 0 0 0 0 0 0 0 0 0 0 0 0 0 0 0 0 0 0 0 0 0 0 0 0 0 0 0 0 0 0 0 0 0 0
0 0 0 0 0 0 0 0 0 0 0 0 0 0 0 0 0 0 0 0 0 0 0 0 0 0 0 0 0 0 0 0 0 0 0 0 0 0 0 0 0 0 0
0 0 0 0 0 0 0 0 0 0 0 0 0 0 0 0 0 0 0 0 0 0 0 0 0 0 0 0 0 0 0 0 0 0 0 0 0 0 0 0 0 0 0
0 0 0 0 0 0 0 0 0 0 0 0 0 0 0 0 0 0 0 0 0 0 0 0 0 0 0 0 0 0 0 0 0 0 0 0 0 0 0 0 0 0 0
0 0 0 0 0 0 0 0 0 0 0 0 0 0 0 0 0 0 0 0 0 0 0 0 0 0 0 0 0 0 0 0 0 0 0 0 0 0 0 0 0 0 0
0 0 0 0 0 0 0 0 0 0 0 0 0 0 0 0 0 0 0 0 0 0 0 0 0 0 0 0 0 0 0 0 0 0 0 0 0 0 0 0 0 0 0
0 0 0 0 0 0 0 0 0 0 0 0 0 0 0 0 0 0 0 0 0 0 0 0 0 0 0 0 0 0 0 0 0 0 0 0 0 0 0 0 0 0 0
0 0 0 0 0 0 0 0 0 0 0 0 0 0 0 0 0 0 0 0 0 0 0 0 0 0 0 0 0 0 0 0 0 0 0 0 0 0 0 0 0 0 0
0 0 0 0 0 0 0 0 0 0 0 0 0 0 0 0 0 0 0 0 0 0 0 0 0 0 0 0 0 0 0 0 0 0 0 0 0 0 0 0 0 0 0
0 0 0 0 0 0 0 0 0 0 0 0 0 0 0 0 0 0 0 0 0 0 0 0 0 0 0 0 0 0 0 0 0 0 0 0 0 0 0 0 0 0 0
0 0 0 0 0 0 0 0 0 0 0 0 0 0 0 0 0 0 0 0 0 0 0 0 0 0 0 0 0 0 0 0 0 0 0 0 0 0 0 0 0 0 0
0 0 0 0 0 0 0 0 0 0 0 0 0 0 0 0 0 0 0 0 0 0 0 0 0 0 0 0 0 0 0 0 0 0 0 0 0 0 0 0 0 0 0
0 0 0 0 0 0 0 0 0 0 0 0 0 0 0 0 0 0 0 0 0 0 0 0 0 0 0 0 0 0 0 0 0 0 0 0 0 0 0 0 0 0 0
Wind_Speed
8 10 10 11 12 13 12 13 13 14 14 15 16 16 16 16 16 16 17 17 18 18 19 19 19 19 19 18 18 19 18 18 18 18 18 19 19 18 18 16 14 14 18
11 11 11 11 13 13 13 13 13 13 14 15 15 15 16 16 16 16 16 16 17 17 18 18 18 18 18 17 17 17 17 17 16 15 14 17 18 18 18 18 17 13 17
13 13 12 10 12 13 12 12 12 13 14 14 15 15 15 15 16 16 16 16 16 17 17 18 18 17 17 17 17 17 16 16 14 11 10 12 15 17 17 17 17 17 16
13 12 12 11 12 13 12 12 12 13 14 14 15 15 15 15 15 15 15 15 16 16 17 17 17 17 16 16 16 16 16 15 12 8 10 11 12 16 17 16 16 16 16
12 11 12 11 12 13 12 12 12 12 13 14 15 14 14 15 15 15 15 15 15 16 16 16 16 16 16 16 15 15 15 13 9 11 11 11 11 15 16 15 15 14 14
12 12 13 11 12 12 12 12 12 12 13 14 14 14 14 14 14 14 14 15 15 15 15 15 15 15 15 15 14 14 13 10 8 10 10 11 11 13 14 14 13 13 12
12 11 13 10 11 11 12 12 12 12 13 13 14 14 14 14 13 14 14 14 14 14 14 14 14 14 14 14 13 12 11 8 9 9 9 10 11 13 13 12 12 11 11
11 11 12 10 10 10 10 11 11 11 11 12 13 13 13 13 13 13 13 13 13 13 13 13 13 13 13 12 12 11 10 7 8 9 9 9 10 11 11 11 10 10 10
11 10 11 11 11 10 9 10 10 10 10 11 12 12 11 11 12 12 12 12 12 12 12 12 12 12 12 11 10 10 8 6 8 7 7 7 9 10 10 10 9 9 9
9 10 10 10 10 11 10 10 10 10 10 11 11 11 11 11 11 9 10 11 12 12 12 11 11 11 10 10 9 7 4 2 7 6 5 7 9 9 10 10 10 9 9
9 9 9 10 9 9 9 10 10 10 10 11 10 10 8 8 8 7 10 10 10 10 10 10 10 9 7 8 7 4 2 4 5 5 5 8 9 10 10 10 10 10 10
12 11 9 10 10 9 8 8 7 7 8 7 7 8 5 5 5 7 10 9 9 8 9 9 7 5 2 3 4 0 3 4 4 4 5 8 9 10 10 10 11 11 11
13 12 10 10 9 9 7 6 5 4 5 6 7 7 5 5 5 5 5 5 6 5 5 5 4 3 3 3 3 3 4 4 3 3 5 7 9 10 10 11 11 12 12
14 13 11 10 9 9 8 6 6 5 5 5 6 7 5 4 4 4 3 4 3 3 3 2 2 3 2 3 3 4 4 4 4 3 4 6 8 9 10 11 12 12 13
14 14 13 12 11 9 8 6 6 6 6 6 6 6 6 4 4 4 3 3 3 3 2 2 1 1 1 2 3 4 4 5 4 4 3 5 7 9 10 11 12 13 13
15 14 13 13 12 11 8 7 6 6 6 6 6 7 7 5 4 4 4 3 3 2 2 1 0 1 1 2 3 4 4 4 4 4 3 3 6 8 11 12 12 13 14
15 14 14 14 13 12 11 9 7 6 6 6 6 7 7 6 6 5 4 4 3 3 2 2 1 1 2 2 3 4 3 3 3 3 3 3 4 6 10 12 13 13 14
15 15 15 12 13 13 11 10 7 7 7 7 6 7 8 8 7 5 4 4 4 3 3 2 2 2 2 2 3 3 3 2 2 3 3 4 4 4 7 11 12 13 14
16 16 15 15 15 14 12 9 8 7 8 7 7 7 8 9 8 6 5 4 5 4 3 3 3 2 2 3 3 3 2 1 2 2 4 5 5 6 5 7 9 12 14
15 15 15 15 15 13 10 8 7 8 7 7 7 8 10 9 9 8 5 6 6 4 4 4 4 2 2 2 2 2 1 1 1 2 3 4 5 6 6 6 5 7 12
15 16 16 16 15 13 10 9 8 8 8 8 8 10 11 10 10 9 6 7 6 6 6 5 4 4 2 1 2 1 1 1 2 2 3 3 5 6 6 7 6 6 6
18 17 17 17 16 15 12 10 7 8 8 9 8 10 12 11 11 9 10 7 7 6 6 6 5 3 2 2 2 2 1 2 3 2 2 3 4 4 6 6 7 7 6
19 19 16 18 18 18 16 10 7 7 5 7 9 9 11 12 12 11 11 9 8 8 7 7 7 6 4 3 2 2 2 1 0 2 2 2 3 3 4 5 7 7 8
20 18 19 19 19 18 17 14 15 12 12 12 10 10 11 13 13 12 11 11 9 8 8 7 7 6 5 4 3 2 2 2 2 1 2 2 3 3 4 4 5 7 7
19 18 18 19 19 19 19 18 18 16 13 10 10 12 12 11 12 12 12 10 10 8 8 8 8 7 5 5 4 3 3 2 3 3 3 1 1 2 3 4 4 5 6
16 16 17 19 20 20 20 20 20 19 17 14 14 12 10 8 9 12 11 10 10 8 9 8 8 8 6 6 4 4 4 3 4 4 4 3 2 1 2 3 4 5 5
Wind_Direction
148 142 135 133 123 114 109 105 105 103 102 101 99 97 96 94 92 90 89 88 87 85 84 81 78 76 75 74 73 72 70 68 67 67 69 66 65 64 61 56 57 60 57
142 141 135 132 124 117 113 109 108 108 105 104 102 100 98 97 95 93 92 90 89 88 86 83 80 78 76 76 75 74 72 70 68 66 71 72 64 62 60 57 55 57 56
141 140 138 127 125 121 117 113 111 110 108 106 105 103 101 100 98 97 94 92 92 91 88 86 82 80 78 77 76 75 73 70 66 62 64 70 67 61 60 58 56 55 54
142 142 137 128 129 125 121 117 114 113 112 110 108 106 104 102 100 99 96 93 92 92 90 87 85 82 79 78 76 74 72 68 61 54 64 64 65 61 59 57 54 51 49
143 140 132 133 131 128 124 121 118 116 116 113 110 109 106 103 101 99 96 93 91 90 89 88 86 84 81 79 77 75 72 68 62 63 64 64 64 59 58 56 53 49 46
144 142 137 137 135 132 129 127 125 122 120 117 114 111 108 105 102 100 97 95 93 91 90 89 87 85 82 80 78 75 70 60 66 63 60 59 60 57 55 53 50 47 43
147 144 142 138 136 134 133 130 127 123 121 120 116 112 110 108 105 102 100 98 95 94 92 91 89 87 83 80 77 73 66 48 61 63 59 57 53 52 50 47 43 40 36
149 146 143 132 133 132 130 129 126 124 121 123 119 116 114 112 109 106 103 101 98 96 95 93 90 87 84 80 76 69 56 33 66 60 59 57 39 41 44 40 35 30 25
152 151 150 148 142 131 124 122 120 117 115 117 117 111 106 105 105 104 103 103 101 98 96 93 90 87 84 81 75 68 58 21 55 56 52 48 22 27 31 28 22 16 10
159 158 156 154 153 150 140 122 117 112 109 107 105 100 98 101 100 99 107 103 102 100 98 94 89 86 83 79 73 65 47 17 53 52 47 36 10 15 15 13 8 2 359
167 166 163 159 157 153 147 135 129 118 113 118 114 113 125 126 121 114 97 99 103 102 101 97 91 88 91 87 72 49 5 39 41 38 38 15 1 3 3 1 357 355 355
176 174 170 167 162 157 148 153 150 147 147 149 144 144 138 127 115 113 100 92 93 97 102 96 96 103 95 85 89 21 37 27 25 29 35 8 356 355 355 355 353 353 355
179 176 177 174 169 164 159 163 159 156 154 155 154 151 142 136 135 136 132 129 123 124 116 115 118 84 66 51 34 31 22 11 12 12 30 10 356 354 355 356 356 358 359
184 183 181 180 177 174 169 170 169 166 165 163 163 163 158 151 149 146 146 140 139 131 121 115 99 82 63 45 21 9 6 0 0 0 22 13 2 4 5 5 5 4 3
189 187 185 184 183 179 176 176 179 177 175 169 167 172 174 165 160 156 152 154 150 144 143 132 109 79 37 16 3 350 351 351 351 353 14 35 16 15 14 13 12 10 10
193 191 188 189 188 185 185 185 184 183 178 179 178 179 182 179 171 168 166 168 167 164 155 154 84 359 347 340 336 341 339 343 350 355 8 51 50 29 24 22 19 17 16
194 192 191 191 191 191 192 192 189 187 185 188 185 184 186 188 183 182 180 181 178 177 183 203 220 266 301 315 323 335 336 343 350 8 24 32 50 52 39 30 27 24 22
193 193 191 190 194 194 195 196 193 192 191 193 192 189 192 193 193 191 192 191 185 191 204 215 239 267 283 309 322 334 335 347 13 34 46 49 43 40 50 42 33 29 26
197 194 192 192 195 195 196 198 198 196 198 197 195 197 196 196 198 200 200 195 190 197 208 211 235 260 289 306 323 327 338 5 51 68 66 62 53 42 41 49 44 37 32
202 199 196 194 196 194 193 198 200 204 205 204 202 203 200 199 199 203 204 200 196 201 206 211 220 225 272 302 304 303 351 40 89 86 79 73 59 49 42 34 36 45 39
205 203 201 197 196 191 190 193 197 205 205 207 208 207 205 203 199 202 203 202 200 208 211 209 210 220 230 254 277 281 161 121 103 96 85 72 63 54 45 38 37 30 31
208 206 206 204 199 196 195 194 196 198 208 209 205 208 208 205 202 203 206 203 201 206 208 202 202 210 202 203 260 277 240 172 138 112 89 69 59 53 49 45 44 39 32
211 209 207 206 204 201 200 197 193 197 198 202 208 208 208 207 205 202 207 205 202 203 207 202 200 207 212 194 222 253 265 243 174 153 117 84 60 48 49 53 50 45 39
212 210 210 209 207 204 202 202 200 203 208 209 206 206 206 206 207 204 205 205 204 203 207 203 199 204 210 203 190 224 261 293 264 232 161 118 69 46 47 55 54 48 39
209 209 210 210 210 207 204 206 207 215 218 214 209 208 206 204 207 205 204 204 204 204 205 198 195 198 201 205 191 180 193 208 237 252 259 247 82 65 52 57 55 46 38
209 208 209 210 212 209 207 209 211 214 215 212 208 206 204 201 202 205 202 204 203 200 201 198 194 192 193 195 190 188 189 188 192 208 242 263 285 69 75 67 58 46 33